Regional Weather Roundup
Issued by NWS

Home | Current Version | Previous Version | Graphics & Text | Print | Product List | Glossary On
Versions: 1 2 3 4 5 6 7 8 9 10 11 12 13 14 15 16 17 18 19 20 21 22 23 24 25 26 27 28 29 30 31 32 33 34 35 36 37 38 39 40 41 42 43 44 45 46 47 48 49 50
000
ASUS43 KLSX 192359
RWRMO

WEATHER SUMMARY FOR MISSOURI
NATIONAL WEATHER SERVICE SPRINGFIELD MO
700 PM CDT SUN OCT 19 2014

NOTE: "FAIR" INDICATES FEW OR NO CLOUDS BELOW 12,000 FEET WITH NO
       SIGNIFICANT WEATHER AND/OR OBSTRUCTIONS TO VISIBILITY.
       CURRENT SKY AND/OR WEATHER CONDITIONS ARE NOT AVAILABLE FOR
       CHILLICOTHE AND FARMINGTON.

MOZ001>031-035>038-043-044-053-054-200100-
...NORTHERN AND WESTERN MISSOURI...

CITY           SKY/WX    TMP DP  RH WIND       PRES   REMARKS
KANSAS CTY INT MOCLDY    62  49  62 S8        30.01S
6HR MIN TEMP:  62; 6HR MAX TEMP:  68;

KANSAS C DTWN  CLEAR     65  48  54 S7        30.01S
6HR MIN TEMP:  64; 6HR MAX TEMP:  70;

LEE`S SUMMIT   CLEAR     62  48  60 S7        30.03S
6HR MIN TEMP:  62; 6HR MAX TEMP:  68;

ST JOSEPH      CLOUDY    61  48  62 S7        29.99S
6HR MIN TEMP:  60; 6HR MAX TEMP:  71;

KIRKSVILLE     PTCLDY    56  44  64 S7        30.00F
6HR MIN TEMP:  56; 6HR MAX TEMP:  64;


$$
MOZ066>068-077>081-088>096-101>105-200100-
...SOUTHWEST MISSOURI...

CITY           SKY/WX    TMP DP  RH WIND       PRES   REMARKS
SPRINGFIELD    CLEAR     58  50  75 S7        30.07R
6HR MIN TEMP:  58; 6HR MAX TEMP:  66;

JOPLIN         MOCLDY    60  53  77 CALM      30.07S
6HR MIN TEMP:  59; 6HR MAX TEMP:  68;


$$
MOZ032>034-039>042-045>050-055>058-069>072-200100-
...CENTRAL MISSOURI...

CITY           SKY/WX    TMP DP  RH WIND       PRES   REMARKS
COLUMBIA       PTCLDY    58  45  62 S6        30.04F
6HR MIN TEMP:  58; 6HR MAX TEMP:  65;

JEFFERSON CITY PTCLDY    61  45  55 SE3       30.04F
6HR MIN TEMP:  60; 6HR MAX TEMP:  67;

ROLLA          CLEAR     54  43  66 S6        30.05S
6HR MIN TEMP:  54; 6HR MAX TEMP:  64;

SEDALIA        PTCLDY    59  47  64 S7        30.04S
6HR MIN TEMP:  59; 6HR MAX TEMP:  68;

OSAGE BEACH    PTCLDY    61  45  55 SW7       30.06S

$$
MOZ051-052-059>065-200100-
...EAST CENTRAL MISSOURI...

CITY           SKY/WX    TMP DP  RH WIND       PRES   REMARKS
ST LOUIS INTL  PTCLDY    61  45  55 CALM      30.06S
6HR MIN TEMP:  60; 6HR MAX TEMP:  64;

SPIRIT OF STL  PTCLDY    53  48  83 CALM      30.05R
6HR MIN TEMP:  53; 6HR MAX TEMP:  64;

ST CHARLES     PTCLDY    54  46  74 S6        30.05S
6HR MIN TEMP:  54; 6HR MAX TEMP:  63;


$$
MOZ072>076-082>087-097>100-106>115-200100-
...SOUTH CENTRAL AND SOUTHEAST MISSOURI...

CITY           SKY/WX    TMP DP  RH WIND       PRES   REMARKS
CAPE GIRARDEAU CLOUDY    53  48  83 S5        30.11S
FARMINGTON     PTCLDY    55  45  67 S5        30.10F
6HR MIN TEMP:  55; 6HR MAX TEMP:  64;

POPLAR BLUFF   CLOUDY    55  47  74 S3        30.10R
6HR MIN TEMP:  55; 6HR MAX TEMP:  65;

WEST PLAINS    PTCLDY    53  46  77 S3        30.10S HAZE
6HR MIN TEMP:  53; 6HR MAX TEMP:  63;


$$


USA.gov is the U.S. government's official web portal to all federal, state and local government web resources and services.